User: anonymous
Location: Veyrier
(46.1830°N, 6.2000°E)
Time: 14:23:25
(UTC+02:00)
Language:

Iridium 98 - Orbit

View from above orbital plane
View from above orbital plane
View from above satellite
View from above satellite

Ground track
Ground track

The orbit data is extracted from the following two-line orbital elements,

1 27451U 02031B   14108.44235698  .00000366  00000-0  10342-3 0  2799
2 27451 086.4446 145.4010 0002563 084.2545 047.8882 14.42945222625546
Epoch (UTC): 18 April 2014 10:36:59
Eccentricity: 0.0002563
inclination: 86.4446°
perigee height: 747 km
apogee height: 750 km
right ascension of ascending node: 145.4010°
argument of perigee: 84.2545°
revolutions per day: 14.42945222
mean anomaly at epoch: 47.8882°
orbit number at epoch: 62554

The dashed part of the orbit path shows where the satellite is in the earth's shadow,  

DLR